Weather History for KEWB - April, 2014

Change the Weather History Date:

Sunday, April 13, 2014

  Actual Average Record
Temperature  
Mean Temperature 50 °F -  
Max Temperature 63 °F 53 °F 71 °F (1968)
Min Temperature 37 °F 38 °F 28 °F (1990)
Degree Days  
Heating Degree Days 16    
Moisture  
Dew Point 42 °F    
Average Humidity 71    
Maximum Humidity 93    
Minimum Humidity 31    
Precipitation  
Precipitation 0.00 in - - ()
Sea Level Pressure  
Sea Level Pressure 30.18 in    
Wind  
Wind Speed 8 mph (South)    
Max Wind Speed 20 mph    
Max Gust Speed 29 mph    
Visibility 10 miles    
Events      
Averages and records for this station are not official NWS values.
T = Trace of Precipitation, MM = Missing Value Source: NWS Daily Summary

Daily Weather History Graph

Daily Weather History Graph

Search for Another Location

Airport or City:

Trip Planner

Search our weather history database for the weather conditions in past years. The results will help you decide how hot, cold, wet, or windy it might be!

Date:

Astronomy

Apr. 13, 2014 Rise Set
Actual Time 6:07 AM EDT 7:22 PM EDT
Civil Twilight 5:38 AM EDT 7:51 PM EDT
Nautical Twilight 5:04 AM EDT 8:25 PM EDT
Astronomical Twilight 4:27 AM EDT 9:01 PM EDT
Moon 5:56 PM EDT (4/13) 5:05 AM EDT (4/13)
Length of Visible Light 14h 12m
Length of Day
13h 15m
Waxing Gibbous, 97% of the Moon is Illuminated
Apr 13
Waxing Gibbous
Apr 15
Full
Apr 22
Last Quarter
Apr 29
New
May 6
First Quarter

Hourly Weather History & Observations

Time (EDT) Temp. Windchill Dew Point Humidity Pressure Visibility Wind Dir Wind Speed Gust Speed Precip Events Conditions
12:53 AM 44.1 °F 41.5 °F 36.0 °F 73% 30.23 in 10.0 mi SSW 4.6 mph - N/A   Clear
1:53 AM 42.1 °F - 36.0 °F 79% 30.24 in 10.0 mi Calm Calm - N/A   Clear
2:53 AM 41.0 °F - 35.1 °F 79% 30.25 in 10.0 mi Calm Calm - N/A   Clear
3:53 AM 37.9 °F - 36.0 °F 93% 30.25 in 10.0 mi Calm Calm - N/A   Clear
4:53 AM 39.9 °F - 37.0 °F 89% 30.25 in 10.0 mi Calm Calm - N/A   Clear
5:53 AM 39.9 °F 37.8 °F 37.0 °F 89% 30.24 in 10.0 mi SSW 3.5 mph - N/A   Clear
6:53 AM 42.1 °F 39.2 °F 37.9 °F 85% 30.27 in 10.0 mi SSW 4.6 mph - N/A   Clear
7:53 AM 50.0 °F - 42.1 °F 74% 30.25 in 10.0 mi South 5.8 mph - N/A   Clear
8:53 AM 54.0 °F - 39.0 °F 57% 30.24 in 10.0 mi South 8.1 mph - N/A   Mostly Cloudy
9:53 AM 57.9 °F - 37.0 °F 46% 30.25 in 10.0 mi South 13.8 mph 20.7 mph N/A   Scattered Clouds
10:53 AM 61.0 °F - 30.0 °F 31% 30.22 in 10.0 mi South 17.3 mph 23.0 mph N/A   Mostly Cloudy
11:53 AM 60.1 °F - 30.0 °F 32% 30.22 in 10.0 mi SSE 15.0 mph - N/A   Overcast
12:53 PM 61.0 °F - 36.0 °F 39% 30.21 in 10.0 mi SSW 17.3 mph - N/A   Overcast
1:53 PM 59.0 °F - 44.1 °F 58% 30.19 in 10.0 mi South 15.0 mph - N/A   Overcast
2:53 PM 61.0 °F - 46.9 °F 60% 30.16 in 10.0 mi South 17.3 mph 20.7 mph N/A   Mostly Cloudy
3:07 PM 62.1 °F - 48.0 °F 60% 30.15 in 10.0 mi South 13.8 mph 19.6 mph N/A   Scattered Clouds
3:53 PM 62.1 °F - 48.9 °F 62% 30.12 in 10.0 mi South 19.6 mph 28.8 mph N/A   Clear
4:53 PM 62.1 °F - 51.1 °F 67% 30.09 in 10.0 mi South 12.7 mph - N/A   Clear
5:53 PM 57.9 °F - 50.0 °F 75% 30.10 in 10.0 mi SW 15.0 mph 24.2 mph N/A   Clear
6:53 PM 54.0 °F - 48.9 °F 83% 30.08 in 10.0 mi SSW 13.8 mph 20.7 mph N/A   Clear
7:53 PM 51.8 °F - 48.2 °F 88% 30.08 in 10.0 mi SSW 12.7 mph - N/A   Clear
8:53 PM 52.0 °F - 48.9 °F 89% 30.09 in 10.0 mi SSW 15.0 mph - N/A   Clear
9:53 PM 52.0 °F - 48.9 °F 89% 30.08 in 10.0 mi SSW 15.0 mph - N/A   Clear
10:53 PM 53.1 °F - 50.0 °F 89% 30.08 in 10.0 mi South 12.7 mph - N/A   Clear
11:53 PM 53.1 °F - 50.0 °F 89% 30.09 in 10.0 mi SSW 9.2 mph 18.4 mph N/A   Clear